Weather in Tabory

Russia / Sverdlovsk Oblast     58°31′07″N   64°33′01″E
temp.,
°C
wind,
m/s
gust,
m/s
humid.,
%
clouds,
%
prec.,
mm/h
press.,
hPa
HPBL,
m
5 august, thu
thu523:00+18se2492100 0.8 101184
02:00+17sse2289100 0.0 101132
05:00+16sse22975 0.0 101125
08:00+21se23818 0.0 1010285
11:00+27sse35505 0.0 1009871
14:00+30s344187 0.0 10081643
17:00+30s33445 0.0 10071326
20:00+25se266652 0.0 1006118
6 august, fri
fri623:00+19wsw3697100 4.9 1006129
02:00+19nne1198100 2.8 100521
05:00+18s1299100 3.8 100566
08:00+19w119694 0.3 1006235
11:00+22wnw228470 0.8 1006532
14:00+23nw338288 1.1 1006718
17:00+21nw3687100 2.1 1007569
20:00+18nnw499699 1.3 1008521
7 august, sat
sat723:00+16nnw4998100 2.8 1008429
02:00+15nnw4109785 0.9 1008471
05:00+15nw41096100 1.9 1008420
08:00+14nw41198100 1.6 1008525
11:00+17nnw4896100 4.3 1009565
14:00+16nnw3898100 11.7 1009470
17:00+15nw5996100 15.1 1010448
20:00+14nw4996100 0.3 1011449
8 august, sun
sun823:00+13nw41096100 0.4 1010453
02:00+14nw41099100 2.6 1010421
05:00+14nnw41099100 4.6 1010489
08:00+14nnw41199100 4.2 1011514
11:00+13nnw4999100 6.6 1012394
14:00+17nnw479299 0.2 1013489
17:00+22nnw367085 0.2 1014614
20:00+19nw268782 0.1 1014164
9 august, mon
mon923:00+17nnw3109486 0.1 1015278
02:00+15nnw3998100 0.0 1015245
05:00+14nw399939 0.0 1016246
08:00+18nnw47806 0.0 1016436
11:00+22nnw356121 0.0 10161078
14:00+24nw4451100 0.0 10161463
17:00+24nnw345097 0.0 10161841
20:00+19nw2668100 0.0 1016133